Lapse_Rate
7.2 6.5 6.5 6.5 6.5 6.5 6.5 6.5 6.5 6.5 6.5 6.5 6.5 6.5 6.5 7.3 7.4 7.3 7.6 7.8 8.0 8.2 8.8 9.0 9.2 9.4 9.6 9.7 9.7 9.8 9.6 9.8 9.9 9.8 9.7 9.7 9.5 9.8 9.9 9.5 8.1 8.4 8.4 8.6
6.5 6.5 6.5 6.5 6.5 6.5 6.5 6.5 6.5 6.5 6.5 6.5 6.5 6.5 6.5 7.1 7.1 7.5 7.5 7.7 7.9 8.2 8.6 8.8 9.0 9.2 9.3 9.5 9.6 9.7 9.7 9.8 9.9 9.8 9.8 9.9 10.0 10.0 9.9 9.7 9.6 9.4 9.3 9.1
6.5 6.5 6.8 6.5 6.5 6.5 6.5 6.5 6.5 6.5 6.5 6.5 6.5 6.5 6.5 6.7 7.3 7.6 7.9 8.0 8.1 8.1 8.3 8.6 8.9 9.0 9.2 9.3 9.4 9.4 9.6 9.8 9.9 9.9 9.9 9.9 10.0 9.9 9.7 9.8 9.9 9.9 9.3 9.5
6.5 6.7 6.5 6.5 6.5 6.5 6.5 6.5 6.5 6.5 6.5 6.5 6.5 6.5 6.5 6.5 6.5 7.0 7.5 7.8 8.0 8.2 8.5 8.6 8.8 8.9 9.2 9.3 9.3 9.5 9.7 9.9 9.9 10.0 9.8 9.6 9.4 9.2 9.6 9.7 9.9 10.0 9.7 9.8
6.5 6.5 6.5 6.5 6.5 6.5 6.5 6.5 6.5 6.5 6.5 6.5 6.5 6.5 6.5 6.5 6.5 6.5 7.2 7.6 8.0 8.3 8.4 8.5 8.8 8.9 9.2 9.3 8.9 8.8 9.7 9.9 9.9 10.0 9.8 9.6 9.4 9.6 9.8 9.9 9.8 9.9 10.1 9.9
6.5 7.2 6.6 6.5 6.5 6.5 6.5 6.5 6.5 6.5 6.5 6.5 6.5 6.5 6.5 6.5 6.5 6.5 7.2 7.6 7.9 8.2 8.4 8.7 8.9 9.0 9.1 9.3 9.0 9.4 9.6 9.7 9.8 9.8 9.8 9.6 9.4 9.7 9.7 9.7 9.9 9.7 9.9 10.0
6.5 6.5 6.7 6.9 6.5 6.5 6.5 6.5 6.5 6.5 6.5 6.5 6.5 6.5 6.5 6.5 6.5 6.7 7.0 7.6 8.0 8.3 8.4 8.5 8.6 8.8 9.0 9.0 9.2 9.4 9.5 9.4 9.7 9.7 9.7 9.7 9.6 9.6 9.6 9.7 9.7 9.8 9.7 9.8
6.5 6.5 6.5 6.6 6.5 6.5 6.5 6.5 6.5 6.5 6.5 6.5 6.5 6.5 6.5 6.5 7.1 7.4 7.7 7.8 8.0 8.1 8.4 8.4 8.6 8.8 8.9 9.1 9.3 9.4 9.4 9.4 9.6 9.7 9.7 9.9 9.8 9.8 9.9 9.8 10.3 9.8 9.8 9.9
6.5 6.5 6.5 6.5 6.7 6.5 6.5 6.5 6.5 6.5 6.5 6.5 6.5 6.5 6.5 6.5 6.5 7.1 7.4 7.6 7.7 8.0 8.2 8.4 8.7 8.9 9.1 9.2 9.3 9.4 9.4 9.5 9.6 9.7 9.8 9.9 10.0 9.8 9.9 9.8 10.0 10.3 10.0 10.0
6.5 6.5 6.5 6.5 6.8 6.7 6.5 6.5 6.5 6.5 6.5 6.5 6.5 6.5 6.5 6.5 6.5 6.5 6.9 7.4 7.7 8.0 8.2 8.5 8.7 8.9 9.2 9.4 9.4 9.6 9.7 9.6 9.7 9.8 9.9 9.8 9.9 10.0 9.9 9.9 9.8 9.8 9.9 9.9
6.5 6.5 6.5 6.5 6.5 6.5 6.5 6.5 6.5 6.5 6.5 6.5 6.5 6.5 6.5 6.5 6.5 6.5 7.1 7.6 7.8 8.0 8.2 8.5 8.8 9.0 9.2 9.3 9.5 9.5 9.6 9.6 9.7 9.7 9.8 9.8 9.9 10.0 10.0 10.0 9.9 9.9 9.9 10.0
6.6 6.5 6.5 6.5 6.5 6.6 6.5 6.5 6.5 6.5 6.5 6.5 6.5 6.5 6.5 6.5 6.8 7.0 7.2 7.5 7.9 8.1 8.3 8.5 8.7 8.9 9.1 9.2 9.4 9.4 9.5 9.6 9.6 9.8 9.9 9.8 9.9 9.9 9.9 9.9 10.0 10.1 9.9 10.0
6.5 6.5 6.5 6.5 6.5 6.5 6.5 6.5 6.5 6.5 6.5 6.5 6.5 6.5 6.5 6.8 6.8 7.2 7.2 7.6 7.9 8.2 8.3 8.5 8.7 8.9 9.1 9.2 9.3 9.4 9.5 9.5 9.7 9.8 9.7 9.7 9.8 9.8 9.8 9.9 10.0 10.0 9.8 9.9
6.9 6.5 6.5 6.5 6.5 6.5 6.5 6.5 6.5 6.5 6.5 6.5 6.5 6.5 6.5 6.5 6.5 7.0 7.3 7.7 7.9 8.1 8.2 8.4 8.6 8.8 9.0 9.2 9.3 9.4 9.5 9.7 9.6 9.7 9.7 9.6 9.7 9.7 9.8 9.9 9.9 9.9 9.9 9.7
6.6 6.5 6.5 6.5 6.5 6.5 6.5 6.5 6.5 6.5 6.5 6.5 6.5 6.5 6.5 6.5 6.5 7.2 7.5 7.7 7.7 7.9 8.1 8.3 8.5 8.8 9.0 9.1 9.2 9.4 9.5 9.6 9.7 9.6 9.6 9.5 9.7 9.7 9.8 9.6 9.8 9.9 9.8 9.9
6.6 6.5 6.5 6.5 6.5 6.5 6.5 6.5 6.5 6.5 6.5 6.5 6.5 6.5 6.5 7.2 7.3 7.2 7.4 7.5 7.6 7.8 8.1 8.3 8.5 8.7 8.8 9.0 9.1 9.3 9.4 9.5 9.8 9.5 9.4 9.6 9.4 9.8 9.5 9.9 9.9 10.0 9.4 9.9
6.5 6.5 6.5 6.5 6.5 6.5 6.5 6.5 6.5 6.5 6.5 6.5 6.5 6.5 6.7 6.5 6.9 7.2 7.4 7.6 7.7 7.9 8.2 8.3 8.5 8.7 8.9 9.1 9.3 9.3 9.5 9.6 9.5 9.3 9.5 9.4 9.3 9.4 9.0 8.5 8.9 9.3 9.5 9.4
6.5 6.5 6.5 6.5 6.5 6.5 6.5 6.5 6.5 6.5 6.5 6.5 6.5 6.5 6.7 7.0 7.5 7.8 8.0 7.9 7.9 8.1 8.3 8.5 8.7 8.9 9.1 9.3 9.4 9.5 9.2 9.3 9.6 9.6 9.3 9.5 9.5 9.0 8.3 7.5 7.7 8.4 8.3 9.1
6.8 6.5 6.5 6.5 6.5 6.5 6.5 6.5 6.5 6.5 6.5 6.5 6.5 6.6 7.0 7.3 7.5 7.4 8.0 8.2 8.2 8.4 8.6 8.7 9.0 9.1 9.2 9.3 9.4 9.2 9.1 9.4 9.3 9.0 9.2 9.3 9.0 8.1 7.4 7.1 6.8 6.7 7.4 8.1
6.5 6.5 6.5 6.5 6.5 6.5 6.5 6.5 7.2 6.8 6.5 6.8 6.9 6.8 6.9 7.1 6.5 6.5 8.0 8.3 8.4 8.6 8.7 8.8 9.0 9.2 9.3 9.3 9.5 9.2 9.0 8.7 8.9 9.2 8.8 8.9 8.4 7.7 7.1 6.8 6.7 6.7 7.4 8.2
6.5 6.5 6.5 6.5 6.5 6.5 6.5 6.9 7.2 6.5 6.5 7.0 7.2 7.2 7.2 6.6 7.2 7.9 8.3 8.3 8.5 8.6 8.7 8.9 9.1 9.1 9.2 9.2 9.2 9.0 9.0 8.9 9.1 9.2 8.9 8.4 7.5 7.2 6.8 6.6 6.5 6.8 7.7 7.0
6.5 6.5 6.5 6.5 6.5 6.5 7.1 6.8 6.5 6.7 6.9 7.3 7.5 7.5 7.4 7.7 7.8 8.0 8.1 8.2 8.3 8.5 8.7 8.9 9.0 9.0 9.2 9.3 9.3 9.0 8.6 9.2 9.4 9.0 8.3 7.7 6.8 6.9 6.7 6.5 6.5 7.4 8.9 8.7
6.5 6.5 6.5 6.5 6.5 6.9 7.5 7.2 7.5 7.1 7.3 7.5 7.6 7.9 7.9 7.7 7.8 8.0 7.9 8.2 8.4 8.6 8.8 9.0 9.0 9.0 9.1 9.2 9.1 8.8 8.8 8.7 8.7 8.1 8.0 7.0 6.5 6.4 6.4 6.6 6.7 7.6 8.8 8.6
6.5 7.0 6.5 6.5 6.6 6.9 7.4 7.7 7.9 7.9 7.8 7.8 8.0 8.0 8.0 7.8 8.0 8.0 8.2 8.3 8.5 8.6 8.7 9.0 8.9 8.9 8.8 9.2 9.1 8.9 8.5 8.6 8.1 7.9 7.9 7.0 6.7 6.7 6.7 6.2 6.5 6.8 7.9 7.5
6.8 6.9 6.5 6.5 6.7 7.1 7.4 7.7 7.8 7.8 7.9 6.0 6.5 7.3 7.8 7.8 7.8 7.9 8.1 8.3 8.5 8.6 8.9 9.0 8.9 8.8 8.8 9.0 9.0 9.2 8.9 7.7 7.7 7.6 7.4 7.2 6.6 6.6 6.6 6.5 6.3 6.4 7.4 7.9
7.2 6.5 6.5 6.5 7.1 7.2 7.3 7.9 8.2 7.8 7.8 7.8 6.9 7.6 6.3 6.5 7.1 7.3 8.2 8.4 8.6 8.7 8.9 8.9 8.9 8.9 8.5 8.8 8.8 8.9 8.1 8.0 8.0 7.4 7.3 6.6 6.7 6.4 6.5 6.7 6.5 6.3 7.0 7.5
Wind_Speed
2 5 4 1 1 1 2 3 5 2 1 4 2 5 10 11 10 10 9 8 6 4 3 2 3 3 5 7 8 9 10 11 9 8 9 9 9 9 8 11 14 14 12 12
4 4 2 5 4 4 3 5 6 1 0 4 4 10 10 13 12 11 10 9 7 5 3 2 1 2 3 4 6 8 9 9 8 7 8 8 9 9 9 11 14 16 14 14
4 4 5 4 5 5 4 7 4 3 1 2 7 9 12 14 11 11 10 8 6 6 5 4 4 4 4 5 5 7 8 9 9 9 8 8 9 9 10 9 10 11 17 16
1 2 6 5 5 4 6 2 1 3 4 5 2 5 8 13 15 14 14 11 9 7 7 6 7 9 9 6 6 7 8 10 9 10 11 14 12 12 11 11 11 11 18 15
4 3 5 6 1 2 3 1 3 4 6 6 6 5 4 9 14 16 15 12 9 8 5 6 7 8 9 6 6 7 9 12 14 15 15 12 14 13 13 12 15 15 14 18
2 1 1 2 2 1 3 3 1 1 3 5 5 4 4 6 8 13 15 12 10 8 6 6 5 4 5 4 6 8 13 15 17 17 17 17 18 17 15 15 14 14 13 12
3 3 2 2 4 4 4 5 3 4 4 3 4 5 9 3 6 10 16 13 11 7 4 3 5 6 7 8 10 12 15 18 18 19 18 19 19 19 19 18 14 17 14 13
5 5 2 3 2 2 0 3 4 5 4 4 3 6 0 1 4 9 12 10 7 6 4 4 6 7 8 10 13 16 17 19 19 19 19 18 19 13 14 16 15 14 14 14
3 3 2 4 2 3 4 4 3 3 1 4 3 5 7 4 9 11 13 11 8 4 4 6 7 8 10 13 16 17 18 19 19 19 18 19 18 19 16 20 18 14 18 15
2 3 1 3 1 4 4 3 3 3 4 5 4 6 8 9 13 13 15 14 10 4 5 7 8 10 12 15 16 17 19 20 20 20 18 17 20 20 19 19 20 19 18 20
0 2 4 2 6 4 3 3 2 3 4 4 7 4 3 1 5 12 14 14 12 8 7 7 9 12 14 15 17 18 18 19 19 19 19 20 19 20 20 19 20 19 20 21
2 2 4 1 3 2 3 3 5 4 4 3 4 9 3 2 3 5 9 11 12 9 8 9 11 13 15 16 17 18 19 19 18 19 20 20 21 21 21 20 21 21 21 21
2 2 3 4 3 2 6 5 5 2 1 10 8 7 4 3 1 3 7 10 11 10 11 11 13 14 15 17 17 18 17 18 19 19 20 20 20 21 22 22 22 21 22 21
1 3 6 7 3 1 4 8 10 10 5 10 14 22 18 9 7 9 9 10 10 12 10 12 13 15 17 17 17 17 18 17 18 18 19 20 20 20 20 21 22 22 21 21
2 5 4 10 9 8 11 14 11 17 21 11 22 19 20 17 18 16 8 6 7 10 11 13 14 16 17 17 17 17 17 18 18 19 20 21 21 21 20 21 21 21 21 20
2 2 2 5 1 4 11 17 18 22 23 23 26 26 21 10 3 5 4 7 10 11 12 14 17 17 18 18 18 17 18 18 19 21 21 21 20 20 18 19 20 18 20 19
3 2 2 5 2 7 11 18 15 11 13 12 14 11 5 6 8 9 9 9 10 11 13 16 16 16 16 17 17 18 19 20 21 20 21 21 21 21 20 18 20 20 19 20
3 3 2 5 8 7 4 6 6 10 13 11 17 17 14 12 9 10 9 9 9 11 15 15 14 15 16 17 17 18 18 20 18 19 22 20 22 21 20 18 19 19 16 20
2 4 3 4 4 15 13 4 0 2 8 9 14 14 11 7 6 12 4 3 8 12 13 13 14 15 16 17 17 16 17 17 19 21 22 20 21 21 19 19 19 15 14 14
3 3 4 2 4 5 5 4 3 2 9 4 5 9 11 3 11 10 2 7 11 13 12 14 15 15 16 17 18 19 18 17 21 20 20 20 20 19 20 19 14 12 14 13
4 5 9 9 6 9 9 4 3 4 9 4 5 10 6 8 8 9 8 10 11 12 14 14 14 14 15 18 18 16 19 18 19 20 20 20 20 18 18 16 12 12 12 11
7 6 5 4 6 9 9 9 5 10 4 6 7 8 9 10 9 9 9 10 11 12 13 13 13 13 16 17 15 17 18 19 20 20 20 20 19 16 13 15 11 14 13 13
6 8 3 10 6 4 11 13 11 6 12 13 10 11 9 9 8 7 9 10 10 12 11 12 13 15 15 16 15 18 20 19 20 20 19 19 19 16 14 13 12 11 12 10
6 5 5 6 8 15 17 14 16 15 16 16 13 11 8 9 6 8 8 8 9 10 12 13 14 15 16 17 18 17 18 18 19 19 20 18 17 17 15 11 9 10 9 9
4 4 11 21 17 18 17 12 13 15 11 11 11 10 9 7 6 6 7 8 8 10 11 13 14 14 17 17 16 18 19 16 18 19 18 17 14 15 14 12 10 9 11 10
10 15 11 16 19 19 22 20 19 16 13 12 10 8 7 6 5 5 7 6 8 10 12 13 15 15 16 15 19 19 17 17 18 17 15 14 13 13 12 11 10 14 19 21
Wind_Direction
51 232 233 203 171 149 189 231 259 252 21 288 243 201 189 185 195 191 188 180 174 158 128 120 63 42 29 31 23 21 15 8 7 359 359 351 349 342 341 339 335 331 324 324
208 246 116 126 152 174 213 255 257 182 138 281 263 258 203 193 201 198 192 196 190 190 195 185 303 319 349 350 7 1 3 353 349 343 338 330 327 330 325 316 326 326 324 314
269 88 144 182 176 216 229 263 259 303 250 241 293 255 200 206 204 202 212 212 213 228 250 264 273 291 293 305 336 335 335 335 333 323 314 310 311 303 309 315 314 316 314 309
283 100 198 203 225 249 267 151 171 276 291 289 308 305 194 195 209 210 209 209 217 227 245 269 294 290 277 287 301 301 320 325 328 323 312 308 301 298 297 299 298 297 296 297
104 170 176 216 301 223 33 5 301 278 262 294 182 241 123 188 216 213 211 211 221 227 240 280 288 290 288 279 295 303 307 317 323 318 314 306 296 294 293 289 290 291 290 285
95 44 333 28 98 53 123 215 208 187 212 237 139 233 207 187 232 205 202 201 200 200 237 266 284 304 312 296 292 306 316 315 314 307 306 301 300 297 290 287 288 288 286 283
163 162 104 341 220 186 236 256 239 212 210 355 150 221 278 227 222 203 185 188 185 193 229 285 323 333 325 320 317 313 312 310 311 308 305 302 298 295 292 290 285 286 282 279
226 191 197 11 344 356 68 291 303 290 288 345 159 236 116 359 187 178 176 179 186 208 231 295 317 316 312 315 312 312 312 309 308 307 303 301 297 292 289 287 288 287 287 285
222 164 130 43 3 310 129 227 19 283 221 261 216 241 195 175 169 177 187 192 196 218 263 288 289 299 307 308 310 309 309 306 306 305 304 302 298 293 291 291 288 288 284 282
118 226 163 113 230 71 280 106 227 192 271 267 213 274 270 193 199 201 208 213 209 232 294 286 283 295 305 307 309 307 308 308 308 307 305 304 301 296 293 289 288 280 284 283
230 287 114 205 203 193 158 206 209 298 267 287 298 280 48 337 217 217 224 227 227 241 299 299 298 307 311 307 310 312 311 310 309 309 307 302 299 296 293 292 289 283 286 283
38 305 245 256 110 343 291 262 237 252 195 244 299 273 109 261 278 264 247 240 230 247 297 296 309 310 308 310 310 313 313 311 309 307 305 302 302 300 296 292 291 289 287 281
160 197 268 185 180 181 233 206 237 196 268 237 270 273 150 142 208 238 257 266 233 257 295 307 311 310 309 314 313 313 312 311 311 311 308 306 305 304 300 297 294 292 288 283
253 267 263 275 353 30 222 212 212 219 240 270 235 278 287 261 284 292 281 267 256 289 298 303 303 310 314 313 312 313 313 313 313 310 308 304 303 303 302 299 296 293 287 283
258 259 253 271 274 257 264 260 226 225 239 252 270 282 285 302 313 309 311 285 273 283 299 308 311 314 314 313 315 315 314 313 311 309 305 303 302 303 300 298 294 292 288 286
190 266 294 283 212 255 269 269 250 245 256 263 266 278 287 296 329 313 293 288 290 297 311 315 316 317 316 315 315 315 310 310 311 309 310 310 307 302 300 294 295 294 291 290
218 243 288 277 317 292 267 254 248 232 235 250 255 286 349 291 308 298 304 292 294 306 314 317 317 314 313 314 314 311 311 315 308 304 301 307 303 301 295 291 287 284 286 283
192 207 243 285 305 263 17 263 262 267 265 248 261 278 292 299 301 290 280 281 300 317 318 317 315 314 314 311 312 316 312 305 301 301 308 303 306 300 295 283 278 278 281 281
289 235 253 273 253 298 284 95 154 242 303 283 250 271 289 313 300 279 194 250 311 316 316 314 314 313 312 312 314 309 301 303 305 306 305 307 307 298 299 289 287 286 275 283
162 236 238 211 255 270 17 99 138 181 290 94 201 308 311 273 290 323 78 310 316 320 318 315 316 313 310 315 314 311 310 307 306 315 309 303 306 298 301 296 286 273 276 274
180 208 231 232 258 273 271 172 164 263 331 354 321 321 277 259 295 321 309 311 319 315 314 316 311 306 314 313 314 312 312 311 308 307 310 309 305 301 298 300 288 281 287 269
192 191 209 201 219 271 145 142 218 319 285 290 284 279 258 258 283 288 298 305 310 309 313 311 307 313 313 312 315 310 314 309 311 313 309 310 306 304 301 295 284 280 279 282
242 220 237 207 225 5 202 266 290 285 286 290 286 289 252 258 265 287 298 307 309 309 311 312 313 312 314 312 325 312 314 315 314 311 313 310 307 304 299 290 276 283 287 273
246 222 255 295 233 266 277 273 271 279 276 284 281 274 246 249 256 270 291 302 306 314 316 316 314 315 317 322 324 317 317 310 317 314 314 310 309 308 304 295 282 281 277 278
349 170 258 271 281 267 272 286 298 302 291 271 263 246 230 230 250 275 292 304 314 316 313 318 314 317 321 322 318 321 322 319 319 314 314 313 311 308 304 296 287 273 275 268
224 252 252 269 303 316 305 313 315 295 287 274 247 220 217 226 253 279 293 314 316 314 316 315 318 321 320 316 324 326 323 321 318 316 317 314 313 311 307 306 301 283 278 283